User: anonymous   Login
Location: Camp Creek
(33.9000°N, 111.8167°W)
Time: 23:59:31
(UTC-07:00)
Language:

Cosmos 1656 - Orbit

View from above orbital plane
View from above orbital plane
View from above satellite
View from above satellite

Ground track
Ground track

The orbit data is extracted from the following two-line orbital elements,

1 15755U 85042A   16270.38640646 -.00000152  00000-0 -48501-4 0  9997
2 15755  71.1122 199.0251 0033192 101.7674 258.7179 14.20396687623231
Epoch (UTC): 26 September 2016 09:16:25
Eccentricity: 0.0033192
inclination: 71.1122°
perigee height: 800 km
apogee height: 848 km
right ascension of ascending node: 199.0251°
argument of perigee: 101.7674°
revolutions per day: 14.20396687
mean anomaly at epoch: 258.7179°
orbit number at epoch: 62323

The dashed part of the orbit path shows where the satellite is in the earth's shadow,  

DLR